Location: G�ppingen
(48.7000°N, 9.6670°E)
Time: 04:42:57
(UTC+01:00)

N. Korean satellite - Visible Passes

Search period start: 14 December 2018 00:00
Search period end: 24 December 2018 00:00
Orbit: 456 x 511 km, 97.2° (Epoch: 13 December)

Date Brightness Start Highest point End Pass type
(mag) Time Alt. Az. Time Alt. Az. Time Alt. Az.
14 Dec 10.1 05:32:19 10° ENE 05:33:31 11° E 05:34:44 10° ESE visible
14 Dec 6.5 07:03:49 10° N 07:07:20 60° WNW 07:10:53 10° SSW visible
14 Dec 6.4 17:43:10 10° SSE 17:46:37 89° NE 17:50:04 10° NNW visible
15 Dec 6.9 06:39:13 10° NNE 06:42:47 68° ESE 06:46:23 10° S visible
15 Dec 6.8 17:18:48 10° SE 17:22:04 43° ENE 17:25:22 10° N visible
15 Dec 9.8 18:53:56 10° WSW 18:55:47 14° W 18:57:38 10° WNW visible
16 Dec 8.4 06:14:50 10° NNE 06:18:08 34° E 06:21:28 10° SSE visible
16 Dec 8.8 18:28:06 10° SSW 18:31:00 25° W 18:33:57 10° NW visible
17 Dec 9.5 05:50:48 10° NE 05:53:25 19° E 05:56:03 10° SE visible
17 Dec 7.2 07:23:41 10° N 07:26:59 35° WNW 07:30:19 10° SW visible
17 Dec 7.4 18:02:58 10° S 18:06:18 50° W 18:09:42 10° NNW visible
18 Dec 10.2 05:28:06 10° E 05:28:36 10° E 05:29:07 10° E visible
18 Dec 6.5 06:58:54 10° N 07:02:29 69° WNW 07:06:06 10° SSW visible
18 Dec 6.3 17:38:17 10° SSE 17:41:42 78° ENE 17:45:11 10° N visible
19 Dec 7.2 06:34:19 10° NNE 06:37:54 60° E 06:41:31 10° S visible
19 Dec 6.9 17:13:58 10° SE 17:17:11 38° ENE 17:20:26 10° N visible
19 Dec 9.7 18:48:41 10° SW 18:50:50 16° W 18:53:00 10° NW visible
20 Dec 8.6 06:09:58 10° NNE 06:13:14 31° E 06:16:31 10° SSE visible
20 Dec 8.6 18:23:02 10° SSW 18:26:03 29° W 18:29:08 10° NNW visible
21 Dec 9.7 05:46:02 10° NE 05:48:29 17° E 05:50:58 10° SE visible
21 Dec 7.0 07:18:42 10° N 07:22:06 40° WNW 07:25:33 10° SW visible
21 Dec 7.1 17:57:59 10° S 18:01:22 58° W 18:04:49 10° NNW visible
22 Dec 6.5 06:53:56 10° N 06:57:35 79° WNW 07:01:16 10° SSW visible
22 Dec 6.4 17:33:21 10° SSE 17:36:46 68° ENE 17:40:15 10° N visible
23 Dec 7.5 06:29:23 10° NNE 06:32:59 53° E 06:36:35 10° S visible
23 Dec 7.1 17:09:06 10° SE 17:12:15 34° ENE 17:15:27 10° N visible
23 Dec 9.5 18:43:26 10° SW 18:45:50 18° W 18:48:16 10° NW visible
